Year,Month,Day,Hour,Minute,Value (Times are PST for windgust in km/hr)
2013,09,30,00,00,12.90
2013,09,30,00,01,17.70
2013,09,30,00,02,22.50
2013,09,30,00,03,27.40
2013,09,30,00,04,29.00
2013,09,30,00,05,17.70
2013,09,30,00,06,19.30
2013,09,30,00,07,14.50
2013,09,30,00,08,12.90
2013,09,30,00,09,19.30
2013,09,30,00,10,11.30
2013,09,30,00,11,11.30
2013,09,30,00,12,12.90
2013,09,30,00,13,19.30
2013,09,30,00,14,14.50
2013,09,30,00,15,17.70
2013,09,30,00,16,19.30
2013,09,30,00,17,14.50
2013,09,30,00,18,19.30
2013,09,30,00,19,20.90
2013,09,30,00,20,29.00
2013,09,30,00,21,24.20
2013,09,30,00,22,17.70
2013,09,30,00,23,12.90
2013,09,30,00,24,16.10
2013,09,30,00,25,19.30
2013,09,30,00,26,16.10
2013,09,30,00,27,14.50
2013,09,30,00,28,14.50
2013,09,30,00,29,14.50
2013,09,30,00,30,14.50
2013,09,30,00,31,16.10
2013,09,30,00,32,14.50
2013,09,30,00,33,11.30
2013,09,30,00,34,9.60
2013,09,30,00,35,16.10
2013,09,30,00,36,24.20
2013,09,30,00,37,12.90
2013,09,30,00,38,19.30
2013,09,30,00,39,24.20
2013,09,30,00,40,17.70
2013,09,30,00,41,19.30
2013,09,30,00,42,20.90
2013,09,30,00,43,29.00
2013,09,30,00,44,20.90
2013,09,30,00,45,33.80
2013,09,30,00,46,19.30
2013,09,30,00,47,27.40
2013,09,30,00,48,17.70
2013,09,30,00,49,22.50
2013,09,30,00,50,27.40
2013,09,30,00,51,27.40
2013,09,30,00,52,25.70
2013,09,30,00,53,24.20
2013,09,30,00,54,17.70
2013,09,30,00,55,30.60
2013,09,30,00,56,19.30
2013,09,30,00,57,27.40
2013,09,30,00,58,22.50
2013,09,30,00,59,20.90
2013,09,30,01,00,19.30
2013,09,30,01,01,17.70
2013,09,30,01,02,19.30
2013,09,30,01,03,22.50
2013,09,30,01,04,20.90
2013,09,30,01,05,19.30
2013,09,30,01,06,17.70
2013,09,30,01,07,17.70
2013,09,30,01,08,19.30
2013,09,30,01,09,14.50
2013,09,30,01,10,16.10
2013,09,30,01,11,14.50
2013,09,30,01,12,14.50
2013,09,30,01,13,17.70
2013,09,30,01,14,16.10
2013,09,30,01,15,11.30
2013,09,30,01,16,16.10
2013,09,30,01,17,12.90
2013,09,30,01,18,12.90
2013,09,30,01,19,16.10
2013,09,30,01,20,12.90
2013,09,30,01,21,11.30
2013,09,30,01,22,16.10
2013,09,30,01,23,17.70
2013,09,30,01,24,16.10
2013,09,30,01,25,11.30
2013,09,30,01,26,17.70
2013,09,30,01,27,32.20
2013,09,30,01,28,30.60
2013,09,30,01,29,22.50
2013,09,30,01,30,19.30
2013,09,30,01,31,19.30
2013,09,30,01,32,19.30
2013,09,30,01,33,20.90
2013,09,30,01,34,24.20
2013,09,30,01,35,22.50
2013,09,30,01,36,22.50
2013,09,30,01,37,25.70
2013,09,30,01,38,19.30
2013,09,30,01,39,25.70
2013,09,30,01,40,20.90
2013,09,30,01,41,32.20
2013,09,30,01,42,29.00
2013,09,30,01,43,24.20
2013,09,30,01,44,25.70
2013,09,30,01,45,20.90
2013,09,30,01,46,17.70
2013,09,30,01,47,24.20
2013,09,30,01,48,20.90
2013,09,30,01,49,19.30
2013,09,30,01,50,25.70
2013,09,30,01,51,35.40
2013,09,30,01,52,37.00
2013,09,30,01,53,25.70
2013,09,30,01,54,24.20
2013,09,30,01,55,17.70
2013,09,30,01,56,29.00
2013,09,30,01,57,16.10
2013,09,30,01,58,17.70
2013,09,30,01,59,20.90
2013,09,30,02,00,22.50
2013,09,30,02,01,14.50
2013,09,30,02,02,24.20
2013,09,30,02,03,20.90
2013,09,30,02,04,20.90
2013,09,30,02,05,24.20
2013,09,30,02,06,22.50
2013,09,30,02,07,22.50
2013,09,30,02,08,17.70
2013,09,30,02,09,24.20
2013,09,30,02,10,27.40
2013,09,30,02,11,22.50
2013,09,30,02,12,32.20
2013,09,30,02,13,27.40
2013,09,30,02,14,19.30
2013,09,30,02,15,27.40
2013,09,30,02,16,25.70
2013,09,30,02,17,35.40
2013,09,30,02,18,22.50
2013,09,30,02,19,35.40
2013,09,30,02,20,33.80
2013,09,30,02,21,38.60
2013,09,30,02,22,30.60
2013,09,30,02,23,30.60
2013,09,30,02,24,22.50
2013,09,30,02,25,24.20
2013,09,30,02,26,29.00
2013,09,30,02,27,20.90
2013,09,30,02,28,29.00
2013,09,30,02,29,24.20
2013,09,30,02,30,25.70
2013,09,30,02,31,30.60
2013,09,30,02,32,37.00
2013,09,30,02,33,29.00
2013,09,30,02,34,22.50
2013,09,30,02,35,25.70
2013,09,30,02,36,25.70
2013,09,30,02,37,27.40
2013,09,30,02,38,33.80
2013,09,30,02,39,27.40
2013,09,30,02,40,32.20
2013,09,30,02,41,27.40
2013,09,30,02,42,30.60
2013,09,30,02,43,35.40
2013,09,30,02,44,30.60
2013,09,30,02,45,33.80
2013,09,30,02,46,29.00
2013,09,30,02,47,25.70
2013,09,30,02,48,30.60
2013,09,30,02,49,27.40
2013,09,30,02,50,29.00
2013,09,30,02,51,25.70
2013,09,30,02,52,22.50
2013,09,30,02,53,19.30
2013,09,30,02,54,14.50
2013,09,30,02,55,19.30
2013,09,30,02,56,16.10
2013,09,30,02,57,20.90
2013,09,30,02,58,19.30
2013,09,30,02,59,19.30
2013,09,30,03,00,17.70
2013,09,30,03,01,17.70
2013,09,30,03,02,16.10
2013,09,30,03,03,14.50
2013,09,30,03,04,17.70
2013,09,30,03,05,12.90
2013,09,30,03,06,16.10
2013,09,30,03,07,22.50
2013,09,30,03,08,19.30
2013,09,30,03,09,16.10
2013,09,30,03,10,20.90
2013,09,30,03,11,27.40
2013,09,30,03,12,12.90
2013,09,30,03,13,20.90
2013,09,30,03,14,17.70
2013,09,30,03,15,19.30
2013,09,30,03,16,20.90
2013,09,30,03,17,19.30
2013,09,30,03,18,25.70
2013,09,30,03,19,24.20
2013,09,30,03,20,22.50
2013,09,30,03,21,17.70
2013,09,30,03,22,20.90
2013,09,30,03,23,22.50
2013,09,30,03,24,20.90
2013,09,30,03,25,24.20
2013,09,30,03,26,14.50
2013,09,30,03,27,22.50
2013,09,30,03,28,24.20
2013,09,30,03,29,19.30
2013,09,30,03,30,20.90
2013,09,30,03,31,19.30
2013,09,30,03,32,17.70
2013,09,30,03,33,14.50
2013,09,30,03,34,17.70
2013,09,30,03,35,22.50
2013,09,30,03,36,19.30
2013,09,30,03,37,24.20
2013,09,30,03,38,20.90
2013,09,30,03,39,22.50
2013,09,30,03,40,19.30
2013,09,30,03,41,17.70
2013,09,30,03,42,19.30
2013,09,30,03,43,25.70
2013,09,30,03,44,20.90
2013,09,30,03,45,25.70
2013,09,30,03,46,24.20
2013,09,30,03,47,19.30
2013,09,30,03,48,22.50
2013,09,30,03,49,20.90
2013,09,30,03,50,22.50
2013,09,30,03,51,17.70
2013,09,30,03,52,17.70
2013,09,30,03,53,16.10
2013,09,30,03,54,22.50
2013,09,30,03,55,25.70
2013,09,30,03,56,19.30
2013,09,30,03,57,20.90
2013,09,30,03,58,25.70
2013,09,30,03,59,30.60
2013,09,30,04,00,20.90
2013,09,30,04,01,20.90
2013,09,30,04,02,19.30
2013,09,30,04,03,25.70
2013,09,30,04,04,24.20
2013,09,30,04,05,24.20
2013,09,30,04,06,25.70
2013,09,30,04,07,20.90
2013,09,30,04,08,30.60
2013,09,30,04,09,20.90
2013,09,30,04,10,22.50
2013,09,30,04,11,20.90
2013,09,30,04,12,17.70
2013,09,30,04,13,24.20
2013,09,30,04,14,24.20
2013,09,30,04,15,14.50
2013,09,30,04,16,20.90
2013,09,30,04,17,19.30
2013,09,30,04,18,19.30
2013,09,30,04,19,19.30
2013,09,30,04,20,19.30
2013,09,30,04,21,22.50
2013,09,30,04,22,19.30
2013,09,30,04,23,29.00
2013,09,30,04,24,20.90
2013,09,30,04,25,24.20
2013,09,30,04,26,20.90
2013,09,30,04,27,19.30
2013,09,30,04,28,20.90
2013,09,30,04,29,24.20
2013,09,30,04,30,20.90
2013,09,30,04,31,24.20
2013,09,30,04,32,20.90
2013,09,30,04,33,20.90
2013,09,30,04,34,17.70
2013,09,30,04,35,20.90
2013,09,30,04,36,24.20
2013,09,30,04,37,27.40
2013,09,30,04,38,19.30
2013,09,30,04,39,17.70
2013,09,30,04,40,20.90
2013,09,30,04,41,16.10
2013,09,30,04,42,20.90
2013,09,30,04,43,17.70
2013,09,30,04,44,29.00
2013,09,30,04,45,24.20
2013,09,30,04,46,27.40
2013,09,30,04,47,22.50
2013,09,30,04,48,20.90
2013,09,30,04,49,19.30
2013,09,30,04,50,19.30
2013,09,30,04,51,16.10
2013,09,30,04,52,19.30
2013,09,30,04,53,17.70
2013,09,30,04,54,24.20
2013,09,30,04,55,22.50
2013,09,30,04,56,17.70
2013,09,30,04,57,20.90
2013,09,30,04,58,22.50
2013,09,30,04,59,19.30
2013,09,30,05,00,17.70
2013,09,30,05,01,20.90
2013,09,30,05,02,25.70
2013,09,30,05,03,20.90
2013,09,30,05,04,24.20
2013,09,30,05,05,22.50
2013,09,30,05,06,16.10
2013,09,30,05,07,19.30
2013,09,30,05,08,19.30
2013,09,30,05,09,16.10
2013,09,30,05,10,20.90
2013,09,30,05,11,19.30
2013,09,30,05,12,20.90
2013,09,30,05,13,22.50
2013,09,30,05,14,20.90
2013,09,30,05,15,22.50
2013,09,30,05,16,24.20
2013,09,30,05,17,24.20
2013,09,30,05,18,22.50
2013,09,30,05,19,22.50
2013,09,30,05,20,19.30
2013,09,30,05,21,19.30
2013,09,30,05,22,19.30
2013,09,30,05,23,20.90
2013,09,30,05,24,20.90
2013,09,30,05,25,22.50
2013,09,30,05,26,20.90
2013,09,30,05,27,17.70
2013,09,30,05,28,22.50
2013,09,30,05,29,19.30
2013,09,30,05,30,20.90
2013,09,30,05,31,20.90
2013,09,30,05,32,19.30
2013,09,30,05,33,16.10
2013,09,30,05,34,20.90
2013,09,30,05,35,19.30
2013,09,30,05,36,22.50
2013,09,30,05,37,12.90
2013,09,30,05,38,14.50
2013,09,30,05,39,16.10
2013,09,30,05,40,12.90
2013,09,30,05,41,11.30
2013,09,30,05,42,12.90
2013,09,30,05,43,11.30
2013,09,30,05,44,11.30
2013,09,30,05,45,17.70
2013,09,30,05,46,20.90
2013,09,30,05,47,20.90
2013,09,30,05,48,17.70
2013,09,30,05,49,16.10
2013,09,30,05,50,20.90
2013,09,30,05,51,17.70
2013,09,30,05,52,17.70
2013,09,30,05,53,17.70
2013,09,30,05,54,14.50
2013,09,30,05,55,16.10
2013,09,30,05,56,20.90
2013,09,30,05,57,20.90
2013,09,30,05,58,19.30
2013,09,30,05,59,20.90
2013,09,30,06,00,17.70
2013,09,30,06,01,19.30
2013,09,30,06,02,16.10
2013,09,30,06,03,14.50
2013,09,30,06,04,24.20
2013,09,30,06,05,19.30
2013,09,30,06,06,20.90
2013,09,30,06,07,20.90
2013,09,30,06,08,27.40
2013,09,30,06,09,27.40
2013,09,30,06,10,29.00
2013,09,30,06,11,20.90
2013,09,30,06,12,19.30
2013,09,30,06,13,22.50
2013,09,30,06,14,25.70
2013,09,30,06,15,20.90
2013,09,30,06,16,19.30
2013,09,30,06,17,20.90
2013,09,30,06,18,20.90
2013,09,30,06,19,22.50
2013,09,30,06,20,19.30
2013,09,30,06,21,20.90
2013,09,30,06,22,20.90
2013,09,30,06,23,19.30
2013,09,30,06,24,19.30
2013,09,30,06,25,16.10
2013,09,30,06,26,16.10
2013,09,30,06,27,19.30
2013,09,30,06,28,16.10
2013,09,30,06,29,20.90
2013,09,30,06,30,17.70
2013,09,30,06,31,20.90
2013,09,30,06,32,16.10
2013,09,30,06,33,19.30
2013,09,30,06,34,17.70
2013,09,30,06,35,12.90
2013,09,30,06,36,12.90
2013,09,30,06,37,16.10
2013,09,30,06,38,14.50
2013,09,30,06,39,16.10
2013,09,30,06,40,12.90
2013,09,30,06,41,12.90
2013,09,30,06,42,16.10
2013,09,30,06,43,16.10
2013,09,30,06,44,17.70
2013,09,30,06,45,19.30
2013,09,30,06,46,14.50
2013,09,30,06,47,12.90
2013,09,30,06,48,11.30
2013,09,30,06,49,12.90
2013,09,30,06,50,11.30
2013,09,30,06,51,16.10
2013,09,30,06,52,14.50
2013,09,30,06,53,19.30
2013,09,30,06,54,12.90
2013,09,30,06,55,14.50
2013,09,30,06,56,19.30
2013,09,30,06,57,14.50
2013,09,30,06,58,17.70
2013,09,30,06,59,16.10
2013,09,30,07,00,16.10
2013,09,30,07,01,17.70
2013,09,30,07,02,20.90
2013,09,30,07,03,17.70
2013,09,30,07,04,17.70
2013,09,30,07,05,16.10
2013,09,30,07,06,17.70
2013,09,30,07,07,16.10
2013,09,30,07,08,19.30
2013,09,30,07,09,14.50
2013,09,30,07,10,22.50
2013,09,30,07,11,17.70
2013,09,30,07,12,14.50
2013,09,30,07,13,22.50
2013,09,30,07,14,19.30
2013,09,30,07,15,20.90
2013,09,30,07,16,14.50
2013,09,30,07,17,17.70
2013,09,30,07,18,17.70
2013,09,30,07,19,17.70
2013,09,30,07,20,12.90
2013,09,30,07,21,11.30
2013,09,30,07,22,12.90
2013,09,30,07,23,14.50
2013,09,30,07,24,12.90
2013,09,30,07,25,16.10
2013,09,30,07,26,11.30
2013,09,30,07,27,16.10
2013,09,30,07,28,12.90
2013,09,30,07,29,12.90
2013,09,30,07,30,11.30
2013,09,30,07,31,12.90
2013,09,30,07,32,14.50
2013,09,30,07,33,16.10
2013,09,30,07,34,16.10
2013,09,30,07,35,14.50
2013,09,30,07,36,14.50
2013,09,30,07,37,20.90
2013,09,30,07,38,17.70
2013,09,30,07,39,12.90
2013,09,30,07,40,19.30
2013,09,30,07,41,14.50
2013,09,30,07,42,11.30
2013,09,30,07,43,16.10
2013,09,30,07,44,16.10
2013,09,30,07,45,14.50
2013,09,30,07,46,14.50
2013,09,30,07,47,20.90
2013,09,30,07,48,22.50
2013,09,30,07,49,16.10
2013,09,30,07,50,17.70
2013,09,30,07,51,12.90
2013,09,30,07,52,24.20
2013,09,30,07,53,29.00
2013,09,30,07,54,17.70
2013,09,30,07,55,12.90
2013,09,30,07,56,17.70
2013,09,30,07,57,20.90
2013,09,30,07,58,20.90
2013,09,30,07,59,20.90
2013,09,30,08,00,17.70
2013,09,30,08,01,14.50
2013,09,30,08,02,20.90
2013,09,30,08,03,17.70
2013,09,30,08,04,20.90
2013,09,30,08,05,22.50
2013,09,30,08,06,16.10
2013,09,30,08,07,22.50
2013,09,30,08,08,22.50
2013,09,30,08,09,20.90
2013,09,30,08,10,20.90
2013,09,30,08,11,17.70
2013,09,30,08,12,17.70
2013,09,30,08,13,12.90
2013,09,30,08,14,17.70
2013,09,30,08,15,16.10
2013,09,30,08,16,19.30
2013,09,30,08,17,14.50
2013,09,30,08,18,19.30
2013,09,30,08,19,14.50
2013,09,30,08,20,8.10
2013,09,30,08,21,9.60
2013,09,30,08,22,12.90
2013,09,30,08,23,14.50
2013,09,30,08,24,12.90
2013,09,30,08,25,11.30
2013,09,30,08,26,11.30
2013,09,30,08,27,9.60
2013,09,30,08,28,14.50
2013,09,30,08,29,17.70
2013,09,30,08,30,14.50
2013,09,30,08,31,12.90
2013,09,30,08,32,11.30
2013,09,30,08,33,12.90
2013,09,30,08,34,9.60
2013,09,30,08,35,8.10
2013,09,30,08,36,11.30
2013,09,30,08,37,8.10
2013,09,30,08,38,8.10
2013,09,30,08,39,6.40
2013,09,30,08,40,9.60
2013,09,30,08,41,11.30
2013,09,30,08,42,6.40
2013,09,30,08,43,8.10
2013,09,30,08,44,8.10
2013,09,30,08,45,12.90
2013,09,30,08,46,12.90
2013,09,30,08,47,11.30
2013,09,30,08,48,12.90
2013,09,30,08,49,16.10
2013,09,30,08,50,14.50
2013,09,30,08,51,12.90
2013,09,30,08,52,12.90
2013,09,30,08,53,12.90
2013,09,30,08,54,11.30
2013,09,30,08,55,12.90
2013,09,30,08,56,16.10
2013,09,30,08,57,14.50
2013,09,30,08,58,14.50
2013,09,30,08,59,14.50
2013,09,30,09,00,11.30
2013,09,30,09,01,14.50
2013,09,30,09,02,19.30
2013,09,30,09,03,19.30
2013,09,30,09,04,14.50
2013,09,30,09,05,12.90
2013,09,30,09,06,17.70
2013,09,30,09,07,12.90
2013,09,30,09,08,8.10
2013,09,30,09,09,17.70
2013,09,30,09,10,14.50
2013,09,30,09,11,11.30
2013,09,30,09,12,14.50
2013,09,30,09,13,9.60
2013,09,30,09,14,8.10
2013,09,30,09,15,11.30
2013,09,30,09,16,6.40
2013,09,30,09,17,4.80
2013,09,30,09,18,6.40
2013,09,30,09,19,6.40
2013,09,30,09,20,8.10
2013,09,30,09,21,8.10
2013,09,30,09,22,8.10
2013,09,30,09,23,3.20
2013,09,30,09,24,1.60
2013,09,30,09,25,3.20
2013,09,30,09,26,11.30
2013,09,30,09,27,11.30
2013,09,30,09,28,6.40
2013,09,30,09,29,8.10
2013,09,30,09,30,6.40
2013,09,30,09,31,9.60
2013,09,30,09,32,8.10
2013,09,30,09,33,17.70
2013,09,30,09,34,16.10
2013,09,30,09,35,8.10
2013,09,30,09,36,9.60
2013,09,30,09,37,12.90
2013,09,30,09,38,9.60
2013,09,30,09,39,16.10
2013,09,30,09,40,19.30
2013,09,30,09,41,17.70
2013,09,30,09,42,16.10
2013,09,30,09,43,19.30
2013,09,30,09,44,16.10
2013,09,30,09,45,16.10
2013,09,30,09,46,19.30
2013,09,30,09,47,14.50
2013,09,30,09,48,17.70
2013,09,30,09,49,17.70
2013,09,30,09,50,16.10
2013,09,30,09,51,20.90
2013,09,30,09,52,22.50
2013,09,30,09,53,22.50
2013,09,30,09,54,17.70
2013,09,30,09,55,25.70
2013,09,30,09,56,20.90
2013,09,30,09,57,24.20
2013,09,30,09,58,17.70
2013,09,30,09,59,22.50
2013,09,30,10,00,19.30
2013,09,30,10,01,24.20
2013,09,30,10,02,22.50
2013,09,30,10,03,19.30
2013,09,30,10,04,12.90
2013,09,30,10,05,19.30
2013,09,30,10,06,16.10
2013,09,30,10,07,17.70
2013,09,30,10,08,17.70
2013,09,30,10,09,16.10
2013,09,30,10,10,8.10
2013,09,30,10,11,16.10
2013,09,30,10,12,14.50
2013,09,30,10,13,8.10
2013,09,30,10,14,12.90
2013,09,30,10,15,9.60
2013,09,30,10,16,16.10
2013,09,30,10,17,8.10
2013,09,30,10,18,14.50
2013,09,30,10,19,14.50
2013,09,30,10,20,8.10
2013,09,30,10,21,6.40
2013,09,30,10,22,6.40
2013,09,30,10,23,4.80
2013,09,30,10,24,4.80
2013,09,30,10,25,4.80
2013,09,30,10,26,8.10
2013,09,30,10,27,14.50
2013,09,30,10,28,9.60
2013,09,30,10,29,22.50
2013,09,30,10,30,19.30
2013,09,30,10,31,22.50
2013,09,30,10,32,17.70
2013,09,30,10,33,14.50
2013,09,30,10,34,17.70
2013,09,30,10,35,11.30
2013,09,30,10,36,19.30
2013,09,30,10,37,19.30
2013,09,30,10,38,16.10
2013,09,30,10,39,16.10
2013,09,30,10,40,17.70
2013,09,30,10,41,16.10
2013,09,30,10,42,17.70
2013,09,30,10,43,17.70
2013,09,30,10,44,17.70
2013,09,30,10,45,20.90
2013,09,30,10,46,17.70
2013,09,30,10,47,14.50
2013,09,30,10,48,17.70
2013,09,30,10,49,19.30
2013,09,30,10,50,12.90
2013,09,30,10,51,16.10
2013,09,30,10,52,12.90
2013,09,30,10,53,12.90
2013,09,30,10,54,17.70
2013,09,30,10,55,17.70
2013,09,30,10,56,16.10
2013,09,30,10,57,20.90
2013,09,30,10,58,16.10
2013,09,30,10,59,12.90
2013,09,30,11,00,16.10
2013,09,30,11,01,14.50
2013,09,30,11,02,12.90
2013,09,30,11,03,14.50
2013,09,30,11,04,17.70
2013,09,30,11,05,14.50
2013,09,30,11,06,14.50
2013,09,30,11,07,16.10
2013,09,30,11,08,16.10
2013,09,30,11,09,22.50
2013,09,30,11,10,14.50
2013,09,30,11,11,24.20
2013,09,30,11,12,27.40
2013,09,30,11,13,30.60
2013,09,30,11,14,30.60
2013,09,30,11,15,25.70
2013,09,30,11,16,16.10
2013,09,30,11,17,20.90
2013,09,30,11,18,19.30
2013,09,30,11,19,29.00
2013,09,30,11,20,35.40
2013,09,30,11,21,27.40
2013,09,30,11,22,35.40
2013,09,30,11,23,27.40
2013,09,30,11,24,24.20
2013,09,30,11,25,25.70
2013,09,30,11,26,25.70
2013,09,30,11,27,24.20
2013,09,30,11,28,22.50
2013,09,30,11,29,27.40
2013,09,30,11,30,25.70
2013,09,30,11,31,22.50
2013,09,30,11,32,24.20
2013,09,30,11,33,24.20
2013,09,30,11,34,32.20
2013,09,30,11,35,27.40
2013,09,30,11,36,17.70
2013,09,30,11,37,29.00
2013,09,30,11,38,27.40
2013,09,30,11,39,17.70
2013,09,30,11,40,27.40
2013,09,30,11,41,35.40
2013,09,30,11,42,27.40
2013,09,30,11,43,24.20
2013,09,30,11,44,22.50
2013,09,30,11,45,20.90
2013,09,30,11,46,20.90
2013,09,30,11,47,22.50
2013,09,30,11,48,22.50
2013,09,30,11,49,17.70
2013,09,30,11,50,22.50
2013,09,30,11,51,20.90
2013,09,30,11,52,19.30
2013,09,30,11,53,17.70
2013,09,30,11,54,22.50
2013,09,30,11,55,20.90
2013,09,30,11,56,17.70
2013,09,30,11,57,19.30
2013,09,30,11,58,11.30
2013,09,30,11,59,12.90
2013,09,30,12,00,14.50
2013,09,30,12,01,19.30
2013,09,30,12,02,19.30
2013,09,30,12,03,17.70
2013,09,30,12,04,16.10
2013,09,30,12,05,14.50
2013,09,30,12,06,19.30
2013,09,30,12,07,12.90
2013,09,30,12,08,11.30
2013,09,30,12,09,16.10
2013,09,30,12,10,11.30
2013,09,30,12,11,9.60
2013,09,30,12,12,9.60
2013,09,30,12,13,16.10
2013,09,30,12,14,14.50
2013,09,30,12,15,12.90
2013,09,30,12,16,14.50
2013,09,30,12,17,14.50
2013,09,30,12,18,11.30
2013,09,30,12,19,14.50
2013,09,30,12,20,14.50
2013,09,30,12,21,22.50
2013,09,30,12,22,19.30
2013,09,30,12,23,17.70
2013,09,30,12,24,12.90
2013,09,30,12,25,19.30
2013,09,30,12,26,22.50
2013,09,30,12,27,16.10
2013,09,30,12,28,22.50
2013,09,30,12,29,27.40
2013,09,30,12,30,20.90
2013,09,30,12,31,27.40
2013,09,30,12,32,24.20
2013,09,30,12,33,19.30
2013,09,30,12,34,27.40
2013,09,30,12,35,29.00
2013,09,30,12,36,22.50
2013,09,30,12,37,25.70
2013,09,30,12,38,29.00
2013,09,30,12,39,20.90
2013,09,30,12,40,20.90
2013,09,30,12,41,24.20
2013,09,30,12,42,30.60
2013,09,30,12,43,17.70
2013,09,30,12,44,16.10
2013,09,30,12,45,20.90
2013,09,30,12,46,22.50
2013,09,30,12,47,24.20
2013,09,30,12,48,16.10
2013,09,30,12,49,20.90
2013,09,30,12,50,17.70
2013,09,30,12,51,22.50
2013,09,30,12,52,19.30
2013,09,30,12,53,20.90
2013,09,30,12,54,25.70
2013,09,30,12,55,16.10
2013,09,30,12,56,17.70
2013,09,30,12,57,19.30
2013,09,30,12,58,17.70
2013,09,30,12,59,22.50
2013,09,30,13,00,17.70
2013,09,30,13,01,22.50
2013,09,30,13,02,20.90
2013,09,30,13,03,16.10
2013,09,30,13,04,19.30
2013,09,30,13,05,20.90
2013,09,30,13,06,14.50
2013,09,30,13,07,24.20
2013,09,30,13,08,22.50
2013,09,30,13,09,22.50
2013,09,30,13,10,27.40
2013,09,30,13,11,24.20
2013,09,30,13,12,16.10
2013,09,30,13,13,25.70
2013,09,30,13,14,22.50
2013,09,30,13,15,27.40
2013,09,30,13,16,20.90
2013,09,30,13,17,20.90
2013,09,30,13,18,22.50
2013,09,30,13,19,22.50
2013,09,30,13,20,20.90
2013,09,30,13,21,17.70
2013,09,30,13,22,30.60
2013,09,30,13,23,20.90
2013,09,30,13,24,22.50
2013,09,30,13,25,17.70
2013,09,30,13,26,20.90
2013,09,30,13,27,17.70
2013,09,30,13,28,16.10
2013,09,30,13,29,11.30
2013,09,30,13,30,12.90
2013,09,30,13,31,11.30
2013,09,30,13,32,11.30
2013,09,30,13,33,17.70
2013,09,30,13,34,16.10
2013,09,30,13,35,16.10
2013,09,30,13,36,11.30
2013,09,30,13,37,16.10
2013,09,30,13,38,11.30
2013,09,30,13,39,16.10
2013,09,30,13,40,22.50
2013,09,30,13,41,20.90
2013,09,30,13,42,19.30
2013,09,30,13,43,14.50
2013,09,30,13,44,20.90
2013,09,30,13,45,16.10
2013,09,30,13,46,22.50
2013,09,30,13,47,24.20
2013,09,30,13,48,20.90
2013,09,30,13,49,12.90
2013,09,30,13,50,16.10
2013,09,30,13,51,17.70
2013,09,30,13,52,17.70
2013,09,30,13,53,19.30
2013,09,30,13,54,16.10
2013,09,30,13,55,19.30
2013,09,30,13,56,22.50
2013,09,30,13,57,29.00
2013,09,30,13,58,16.10
2013,09,30,13,59,20.90
2013,09,30,14,00,19.30
2013,09,30,14,01,20.90
2013,09,30,14,02,24.20
2013,09,30,14,03,22.50
2013,09,30,14,04,20.90
2013,09,30,14,05,22.50
2013,09,30,14,06,22.50
2013,09,30,14,07,19.30
2013,09,30,14,08,19.30
2013,09,30,14,09,16.10
2013,09,30,14,10,22.50
2013,09,30,14,11,24.20
2013,09,30,14,12,19.30
2013,09,30,14,13,19.30
2013,09,30,14,14,22.50
2013,09,30,14,15,22.50
2013,09,30,14,16,22.50
2013,09,30,14,17,20.90
2013,09,30,14,18,16.10
2013,09,30,14,19,19.30
2013,09,30,14,20,16.10
2013,09,30,14,21,19.30
2013,09,30,14,22,20.90
2013,09,30,14,23,16.10
2013,09,30,14,24,22.50
2013,09,30,14,25,19.30
2013,09,30,14,26,16.10
2013,09,30,14,27,17.70
2013,09,30,14,28,16.10
2013,09,30,14,29,20.90
2013,09,30,14,30,17.70
2013,09,30,14,31,17.70
2013,09,30,14,32,20.90
2013,09,30,14,33,16.10
2013,09,30,14,34,11.30
2013,09,30,14,35,11.30
2013,09,30,14,36,12.90
2013,09,30,14,37,12.90
2013,09,30,14,38,12.90
2013,09,30,14,39,14.50
2013,09,30,14,40,14.50
2013,09,30,14,41,22.50
2013,09,30,14,42,19.30
2013,09,30,14,43,14.50
2013,09,30,14,44,14.50
2013,09,30,14,45,14.50
2013,09,30,14,46,17.70
2013,09,30,14,47,16.10
2013,09,30,14,48,19.30
2013,09,30,14,49,25.70
2013,09,30,14,50,22.50
2013,09,30,14,51,20.90
2013,09,30,14,52,14.50
2013,09,30,14,53,25.70
2013,09,30,14,54,11.30
2013,09,30,14,55,20.90
2013,09,30,14,56,16.10
2013,09,30,14,57,16.10
2013,09,30,14,58,17.70
2013,09,30,14,59,20.90
2013,09,30,15,00,11.30
2013,09,30,15,01,14.50
2013,09,30,15,02,12.90
2013,09,30,15,03,17.70
2013,09,30,15,04,19.30
2013,09,30,15,05,19.30
2013,09,30,15,06,20.90
2013,09,30,15,07,22.50
2013,09,30,15,08,19.30
2013,09,30,15,09,20.90
2013,09,30,15,10,25.70
2013,09,30,15,11,22.50
2013,09,30,15,12,27.40
2013,09,30,15,13,19.30
2013,09,30,15,14,20.90
2013,09,30,15,15,17.70
2013,09,30,15,16,25.70
2013,09,30,15,17,24.20
2013,09,30,15,18,22.50
2013,09,30,15,19,12.90
2013,09,30,15,20,20.90
2013,09,30,15,21,22.50
2013,09,30,15,22,11.30
2013,09,30,15,23,12.90
2013,09,30,15,24,22.50
2013,09,30,15,25,14.50
2013,09,30,15,26,12.90
2013,09,30,15,27,29.00
2013,09,30,15,28,25.70
2013,09,30,15,29,20.90
2013,09,30,15,30,9.60
2013,09,30,15,31,19.30
2013,09,30,15,32,20.90
2013,09,30,15,33,24.20
2013,09,30,15,34,19.30
2013,09,30,15,35,19.30
2013,09,30,15,36,20.90
2013,09,30,15,37,20.90
2013,09,30,15,38,20.90
2013,09,30,15,39,24.20
2013,09,30,15,40,12.90
2013,09,30,15,41,17.70
2013,09,30,15,42,22.50
2013,09,30,15,43,11.30
2013,09,30,15,44,17.70
2013,09,30,15,45,16.10
2013,09,30,15,46,11.30
2013,09,30,15,47,16.10
2013,09,30,15,48,19.30
2013,09,30,15,49,22.50
2013,09,30,15,50,11.30
2013,09,30,15,51,14.50
2013,09,30,15,52,14.50
2013,09,30,15,53,11.30
2013,09,30,15,54,22.50
2013,09,30,15,55,19.30
2013,09,30,15,56,22.50
2013,09,30,15,57,16.10
2013,09,30,15,58,25.70
2013,09,30,15,59,25.70
2013,09,30,16,00,24.20
2013,09,30,16,01,12.90
2013,09,30,16,02,16.10
2013,09,30,16,03,14.50
2013,09,30,16,04,19.30
2013,09,30,16,05,17.70
2013,09,30,16,06,12.90
2013,09,30,16,07,17.70
2013,09,30,16,08,22.50
2013,09,30,16,09,19.30
2013,09,30,16,10,20.90
2013,09,30,16,11,22.50
2013,09,30,16,12,19.30
2013,09,30,16,13,17.70
2013,09,30,16,14,14.50
2013,09,30,16,15,14.50
2013,09,30,16,16,11.30
2013,09,30,16,17,8.10
2013,09,30,16,18,20.90
2013,09,30,16,19,14.50
2013,09,30,16,20,12.90
2013,09,30,16,21,17.70
2013,09,30,16,22,17.70
2013,09,30,16,23,14.50
2013,09,30,16,24,12.90
2013,09,30,16,25,16.10
2013,09,30,16,26,17.70
2013,09,30,16,27,14.50
2013,09,30,16,28,22.50
2013,09,30,16,29,24.20
2013,09,30,16,30,12.90
2013,09,30,16,31,8.10
2013,09,30,16,32,11.30
2013,09,30,16,33,11.30
2013,09,30,16,34,16.10
2013,09,30,16,35,9.60
2013,09,30,16,36,14.50
2013,09,30,16,37,11.30
2013,09,30,16,38,11.30
2013,09,30,16,39,14.50
2013,09,30,16,40,11.30
2013,09,30,16,41,14.50
2013,09,30,16,42,14.50
2013,09,30,16,43,14.50
2013,09,30,16,44,12.90
2013,09,30,16,45,16.10
2013,09,30,16,46,16.10
2013,09,30,16,47,19.30
2013,09,30,16,48,17.70
2013,09,30,16,49,12.90
2013,09,30,16,50,12.90
2013,09,30,16,51,11.30
2013,09,30,16,52,9.60
2013,09,30,16,53,16.10
2013,09,30,16,54,22.50
2013,09,30,16,55,16.10
2013,09,30,16,56,25.70
2013,09,30,16,57,16.10
2013,09,30,16,58,16.10
2013,09,30,16,59,16.10
2013,09,30,17,00,12.90
2013,09,30,17,01,14.50
2013,09,30,17,02,11.30
2013,09,30,17,03,12.90
2013,09,30,17,04,14.50
2013,09,30,17,05,14.50
2013,09,30,17,06,16.10
2013,09,30,17,07,14.50
2013,09,30,17,08,16.10
2013,09,30,17,09,16.10
2013,09,30,17,10,12.90
2013,09,30,17,11,12.90
2013,09,30,17,12,12.90
2013,09,30,17,13,16.10
2013,09,30,17,14,14.50
2013,09,30,17,15,19.30
2013,09,30,17,16,25.70
2013,09,30,17,17,25.70
2013,09,30,17,18,12.90
2013,09,30,17,19,14.50
2013,09,30,17,20,14.50
2013,09,30,17,21,16.10